Location: LDNL
(36.4545°S, 141.6685°E)
Time: 03:55:34
(UTC+11:00)

Vanguard 2 - Pass Details

Date: 20 August 2022
Orbit: 552 x 2934 km, 32.9° (Epoch: 06 October)

Event Time Altitude Azimuth Distance (km) Brightness Sun altitude
Rises 17:06:12 0° 277° (W) 6,704 14.0 10.1°
Reaches altitude 10° 17:10:34 10° 278° (W) 5,758 14.0 9.3°
Maximum altitude 17:28:39 78° 0° (N) 2,710 10.5 5.9°
Drops below altitude 10° 17:42:09 10° 83° (E) 4,467 10.9 3.3°
Sets 17:45:05 0° 84° (E) 5,195 11.2 2.8°
